SCP
0 0 0 0 -0 -0 -0 -0 -0 -0 -0 0 0 0 0 0 0 0 0 0 0 0 0 0 0 0 0 0 0 0 0 0 0 0 0 0 0 0 0 0 0 0 0 0 0 0 0
0 0 0 -0 -0 -0 -0 -0 -0 -0 0 0 0 0 0 0 0 0 0 0 0 0 0 0 0 0 0 0 0 0 0 0 0 0 0 0 0 0 0 0 0 0 0 0 0 0 0
0 0 0 -0 -0 -0 -0 0 0 0 0 0 0 0 0 0 0 0 0 0 0 0 0 0 0 0 0 0 0 0 -0 0 0 0 0 0 0 0 0 0 0 0 0 0 0 0 0
0 0 -0 -0 0 -0 0 0 0 0 0 0 0 0 0 0 0 0 0 0 0 0 0 0 0 0 0 0 0 -0 0 0 0 0 0 0 0 0 0 0 0 0 0 0 0 0 0
0 0 -0 0 0 -0 0 0 0 0 0 0 0 0 0 0 0 0 0 0 0 0 0 0 0 0 0 0 0 0 0 0 0 0 0 0 0 0 0 0 0 0 0 0 0 0 0
0 -0 0 0 0 0 0 0 0 0 0 0 0 0 0 0 0 0 0 0 0 0 0 0 0 0 0 0 0 0 0 0 0 0 0 0 0 0 0 0 0 0 0 0 0 0 0
0 0 0 0 0 0 0 0 0 0 0 0 0 0 0 0 0 0 0 0 0 0 0 0 0 0 0 0 0 0 0 0 0 0 0 0 0 0 0 0 0 0 0 0 0 0 0
0 -0 0 0 0 0 0 0 0 0 0 0 0 0 0 0 0 0 0 0 0 0 0 0 0 0 0 0 0 0 0 0 0 0 0 0 0 0 0 0 0 0 0 0 0 0 0
0 -0 0 0 0 0 0 0 0 0 0 0 0 0 0 0 0 0 0 0 0 0 0 0 0 0 0 0 0 0 0 0 0 0 0 0 0 0 0 0 0 0 -0 -0 0 0 -0
0 0 0 0 0 0 0 0 0 0 0 0 0 0 0 0 0 0 0 0 0 0 0 0 0 0 0 0 0 0 0 0 0 0 0 0 -0 0 0 0 0 0 -0 -0 0 0 -0
0 0 0 0 0 0 0 0 0 0 0 0 0 0 0 0 0 0 0 0 0 0 0 0 0 0 0 0 0 0 0 0 0 0 0 0 0 0 0 0 0 0 -0 -0 0 0 0
0 0 0 0 0 0 0 0 0 0 0 0 0 0 0 0 0 0 0 0 0 0 0 0 0 -0 -0 0 0 0 0 -0 0 0 0 -0 0 0 -0 -0 0 -0 -0 0 0 0 0
0 0 0 0 0 0 0 0 0 0 0 0 0 0 0 0 0 0 0 0 0 0 0 0 0 0 0 0 0 -0 -0 -0 -0 -0 -0 -0 0 -0 -0 -0 -0 -0 -0 0 0 0 0
0 0 0 0 0 0 0 0 0 0 0 0 0 0 0 0 0 0 0 0 0 0 0 0 0 0 0 0 -0 -0 -0 -0 -0 0 -0 0 0 0 -0 0 0 0 0 0 0 0 0
0 0 0 0 0 0 0 0 0 0 0 0 0 0 0 0 0 0 0 0 0 0 0 0 0 0 0 0 -0 -0 -0 -0 -0 0 0 -0 0 0 0 0 0 0 0 0 0 0 0
0 0 0 0 0 0 0 0 0 0 0 0 0 0 0 0 0 0 0 0 0 0 0 0 0 0 0 -0 -0 -0 0 -0 0 0 -0 0 -0 0 0 0 0 0 0 0 0 0 0
0 0 0 0 0 0 0 0 0 0 0 0 0 0 0 0 0 0 0 0 0 0 0 0 0 0 0 -0 -0 -0 0 0 -0 -0 -0 0 0 0 0 0 0 0 0 0 0 0 0
0 0 0 0 0 0 0 0 0 0 0 0 0 0 0 0 0 0 0 0 0 0 0 0 0 0 0 -0 -0 -0 0 0 -0 -0 -0 0 0 0 0 0 0 0 0 0 0 0 0
0 0 0 0 0 0 0 0 0 0 0 0 0 0 0 0 0 0 0 0 0 0 0 0 0 0 0 -0 -0 -0 -0 0 0 -0 -0 0 -0 -0 0 0 0 0 0 0 0 0 0
0 0 0 0 0 0 0 0 0 0 0 0 0 0 0 0 0 0 0 0 0 0 0 0 0 0 0 -0 -0 -0 0 -0 -0 -0 -0 -0 0 0 0 0 0 0 0 0 -0 0 0
0 0 0 0 0 0 0 0 0 0 0 0 0 0 0 0 0 0 0 0 0 0 0 0 0 0 0 0 -0 -0 -0 -0 -0 0 -0 -0 0 0 0 0 0 0 0 0 -0 0 0
0 0 0 0 0 0 0 0 0 0 0 0 0 0 0 0 0 0 0 0 0 0 0 0 0 0 0 0 -0 0 0 -0 0 0 -0 0 0 0 0 0 0 0 -0 0 -0 0 0
0 0 0 0 0 0 0 0 0 0 0 0 0 0 0 0 0 0 0 0 0 0 0 0 0 0 0 0 0 -0 -0 -0 -0 0 0 0 0 0 0 0 0 0 0 0 0 0 0
0 0 -0 0 0 0 0 0 0 0 0 0 0 0 0 0 0 0 0 0 0 0 0 0 0 0 0 -0 -0 0 0 -0 -0 -0 0 0 0 0 0 0 0 0 0 0 0 0 0
0 0 0 0 0 0 0 0 0 0 0 0 0 0 0 0 0 0 0 0 0 0 0 0 0 0 0 0 -0 -0 -0 -0 -0 -0 -0 0 0 0 0 0 0 0 0 0 0 0 0
0 0 0 -0 0 0 0 0 0 0 0 0 0 0 0 0 0 0 0 0 0 0 0 0 0 0 0 0 -0 -0 0 0 0 0 0 0 0 0 0 0 0 0 0 -0 0 0 0
0 0 0 0 0 0 0 0 0 0 0 0 0 0 0 0 0 0 0 0 0 0 0 0 0 0 0 0 0 0 -0 0 0 0 0 0 0 0 0 0 0 0 -0 -0 0 0 -0
0 -0 -0 -0 0 0 -0 0 0 0 0 0 0 0 0 0 0 0 0 0 0 0 0 0 0 0 0 0 -0 -0 0 -0 0 0 0 0 0 0 0 0 0 -0 -0 -0 0 0 0
0 -0 -0 0 0 0 -0 0 0 0 0 0 0 0 0 0 0 0 0 0 0 0 0 0 0 0 0 -0 0 -0 0 0 0 0 0 0 0 0 0 0 0 0 0 -0 0 0 0
Wind_Speed_500mb
8 9 12 14 18 21 24 26 30 33 31 23 16 12 13 15 18 20 22 23 25 27 26 25 27 30 36 24 42 25 19 26 27 21 18 16 19 17 11 17 25 39 36 30 43 48 49
6 8 11 13 17 20 23 27 30 28 23 17 13 12 15 16 17 20 21 21 21 24 25 23 24 28 29 23 28 20 33 37 24 21 14 16 10 14 28 23 27 30 41 40 50 49 47
6 8 10 12 16 18 22 25 23 20 20 20 18 20 20 18 20 21 20 21 23 24 22 23 22 27 23 52 29 35 26 24 24 25 28 24 26 22 14 13 28 41 35 33 35 40 19
6 6 7 9 13 17 19 20 18 20 22 22 22 21 19 19 20 20 21 22 22 22 23 23 25 26 24 45 20 17 19 26 41 43 41 27 21 26 21 24 22 15 20 37 22 23 20
6 4 6 8 13 15 17 16 17 20 21 21 20 20 20 18 19 20 22 23 25 27 28 28 27 21 27 12 20 36 41 48 46 36 37 34 30 20 14 10 15 16 28 36 31 34 21
4 3 4 7 9 12 15 16 17 17 17 19 19 20 19 20 22 25 28 29 23 25 20 17 17 12 17 21 52 47 42 35 31 25 16 14 16 8 6 14 28 27 19 32 31 14 41
5 3 1 4 7 10 12 14 13 15 16 18 19 21 21 21 25 30 30 17 17 6 23 26 41 38 65 42 52 44 44 26 15 8 10 16 8 23 40 37 37 34 39 30 23 14 17
7 6 1 2 4 7 10 10 12 12 14 17 19 20 21 22 25 25 28 17 13 17 28 50 35 41 43 41 29 56 31 9 8 12 7 6 28 41 28 24 34 39 39 32 33 22 14
11 6 4 4 3 5 7 9 9 10 14 17 18 20 21 25 20 25 26 26 24 21 12 24 12 21 18 25 23 57 15 15 14 17 18 29 43 20 33 29 34 39 39 31 38 13 16
12 9 7 4 3 4 6 7 8 10 14 16 18 19 22 26 15 26 17 30 28 21 8 12 9 5 15 48 15 41 46 23 10 14 11 22 29 41 33 35 31 39 38 37 29 17 10
16 14 9 6 5 4 4 7 8 10 14 16 18 22 24 24 24 19 27 32 23 9 8 9 13 14 42 12 37 8 20 20 31 28 10 15 21 18 38 54 29 31 31 35 47 21 7
20 16 12 10 6 5 4 6 6 10 13 16 19 22 24 23 21 21 30 31 11 11 11 14 12 16 22 19 8 20 23 19 30 20 18 41 32 21 35 39 40 10 9 34 8 11 11
23 18 14 12 9 7 3 7 8 11 13 18 22 25 26 24 24 26 28 21 9 8 11 15 10 12 23 10 14 8 15 18 11 17 14 37 17 8 14 11 29 31 17 7 13 9 9
25 21 17 14 13 8 6 8 11 14 17 20 26 27 28 24 27 26 26 10 7 7 11 10 12 21 7 17 9 14 12 11 5 21 24 14 13 11 17 13 21 45 19 9 14 12 7
28 24 21 17 15 10 9 9 11 16 21 25 28 33 27 22 25 25 12 7 13 11 7 13 21 10 12 11 4 14 9 7 8 19 16 10 11 5 13 5 7 24 15 8 7 9 6
31 28 25 21 18 13 12 9 11 17 24 30 33 35 15 12 26 19 8 10 6 7 8 6 3 4 8 12 16 15 10 6 21 24 29 10 16 1 4 5 8 12 16 5 4 8 5
36 32 29 25 20 17 13 9 13 18 25 30 29 13 7 23 25 4 4 10 10 12 8 4 6 8 9 7 9 9 13 19 21 33 30 19 9 23 9 4 2 7 5 5 7 2 4
39 35 33 28 22 20 14 10 14 19 24 24 16 6 14 19 9 7 2 5 10 9 7 7 6 7 7 6 6 6 10 15 44 41 33 11 11 14 14 14 14 4 7 2 5 4 2
43 39 36 30 25 22 15 10 14 18 21 25 19 6 9 18 5 7 10 7 5 7 8 9 8 1 2 4 8 7 10 23 32 26 33 18 10 17 19 8 16 12 9 4 8 6 5
45 41 39 34 30 24 16 11 12 17 19 21 9 6 7 12 8 5 4 7 8 9 11 9 15 10 5 5 4 10 18 14 52 23 55 26 8 16 15 13 9 11 11 3 10 3 7
49 42 40 36 33 26 18 12 11 14 15 14 8 3 2 6 5 3 2 3 5 7 7 7 8 2 6 8 8 4 12 26 25 27 36 17 8 20 24 13 11 9 18 27 12 8 9
52 46 44 42 37 29 20 13 11 9 11 9 5 2 1 7 8 7 2 6 5 8 5 9 5 14 13 6 9 17 17 18 9 21 29 21 10 17 9 17 14 9 35 24 22 10 10
56 50 48 44 40 31 22 14 12 7 9 4 3 4 3 1 3 6 4 6 8 16 9 6 13 14 10 11 20 27 29 32 25 17 16 15 17 14 11 25 20 8 18 14 6 24 10
59 55 51 48 43 34 25 18 12 5 8 8 7 6 2 7 3 7 3 6 10 9 10 22 29 2 13 38 50 34 15 19 18 17 10 14 18 6 10 16 13 10 12 5 21 26 25
65 59 54 51 45 37 28 22 13 7 10 9 10 7 4 4 10 11 8 6 14 15 7 13 12 13 30 25 10 13 9 8 8 8 2 6 8 9 6 7 8 10 19 16 14 14 29
67 62 57 53 46 39 30 24 14 10 12 11 12 12 8 2 9 7 2 2 2 4 9 7 14 20 14 6 8 6 4 6 10 8 3 3 6 3 7 6 6 6 29 46 15 5 32
69 63 58 54 48 40 33 25 16 14 14 14 13 13 10 7 7 5 2 3 2 2 4 9 14 10 13 6 6 2 6 7 6 4 9 5 5 3 7 4 7 15 49 33 9 11 42
70 66 59 55 49 41 34 25 18 16 18 18 14 15 13 7 13 8 8 5 4 3 2 10 7 7 8 8 5 5 3 5 5 5 3 2 4 4 3 6 10 51 19 13 14 28 29
71 68 61 57 50 42 34 25 19 16 16 18 17 15 14 14 8 9 12 7 8 7 3 7 5 7 7 4 2 3 6 7 4 6 5 6 2 4 6 4 11 27 12 30 13 12 18
Wind_Direction_500mb
341 344 344 346 350 354 353 353 353 353 348 338 326 330 332 318 308 304 308 307 304 305 304 303 307 306 313 304 286 315 300 302 306 297 285 266 243 248 243 285 277 262 275 265 248 248 245
327 333 340 352 356 0 3 6 2 360 2 11 14 355 352 338 320 324 322 316 308 303 300 298 302 303 304 288 316 302 297 300 317 312 289 245 252 287 263 263 272 304 301 280 256 250 238
303 327 346 358 5 6 14 10 358 1 16 20 21 19 7 348 342 336 326 313 306 302 300 300 297 299 279 272 300 298 293 301 302 306 300 271 271 271 312 302 276 283 278 285 258 245 240
295 329 343 1 10 11 16 10 359 16 21 22 24 16 5 353 343 333 322 316 312 304 298 297 295 292 265 308 306 308 287 281 296 291 286 281 283 270 256 282 299 293 263 248 252 219 229
294 312 336 8 13 12 11 10 15 22 23 25 20 15 7 352 346 340 334 328 317 303 296 291 281 280 270 298 298 314 304 302 302 285 269 268 268 251 223 253 282 233 253 234 255 214 204
247 282 339 11 8 13 8 17 23 24 24 26 17 12 5 358 355 349 336 324 310 299 296 298 269 291 260 302 310 313 322 315 297 291 280 226 211 206 198 205 244 240 243 249 226 219 211
227 248 283 3 354 19 12 18 19 23 24 23 19 10 1 4 358 348 348 347 349 306 305 276 277 269 285 301 303 311 327 312 269 219 190 201 177 220 231 223 235 257 264 251 226 236 250
217 236 228 292 346 15 13 6 18 19 24 19 12 9 3 358 349 350 345 25 11 316 302 308 299 274 288 301 293 309 315 271 211 233 190 259 235 237 244 231 236 243 260 264 253 221 238
226 227 221 253 334 6 356 0 7 12 22 16 9 5 353 349 337 341 349 4 352 333 288 306 310 292 322 305 281 298 275 276 219 248 233 237 247 240 226 222 234 247 244 255 251 177 215
216 221 221 248 291 339 337 358 352 9 17 10 2 352 342 343 345 337 335 339 332 327 36 288 334 343 320 326 272 309 295 256 232 254 236 250 265 232 236 227 213 245 224 244 274 175 215
217 216 215 237 265 305 327 349 346 5 9 6 357 344 340 345 335 337 333 330 325 327 358 276 297 319 324 302 294 334 317 268 257 245 193 246 234 223 218 219 183 244 209 245 232 214 202
219 214 216 221 222 248 325 324 332 354 357 355 348 338 334 341 344 333 330 328 327 38 265 324 315 326 341 310 275 291 313 302 292 277 225 249 234 247 218 224 208 165 216 244 125 202 205
217 211 216 222 220 228 285 296 317 337 343 339 337 333 333 334 331 331 334 329 23 124 342 301 316 336 326 297 308 320 314 318 320 318 322 308 217 185 198 241 209 189 196 166 203 208 195
218 213 213 221 223 222 259 286 312 331 332 334 330 329 326 321 324 328 338 45 90 237 244 312 301 321 338 355 301 325 302 319 9 353 311 337 323 183 168 236 174 183 215 176 171 168 145
215 214 210 213 223 227 244 278 311 331 330 331 325 322 321 312 321 329 352 44 211 207 265 308 316 27 328 345 325 347 301 289 330 3 337 292 252 286 256 218 196 171 204 252 190 55 67
216 211 209 206 216 227 242 272 311 329 333 332 330 324 326 332 324 323 74 255 230 233 315 32 32 85 323 322 343 337 314 294 333 346 340 284 290 102 300 9 301 227 155 159 36 143 230
214 210 208 207 213 224 238 272 311 329 335 333 335 336 350 330 324 338 149 238 292 288 268 161 211 288 250 315 310 297 298 300 4 333 329 306 272 309 327 39 197 130 169 48 92 140 99
213 209 209 206 210 220 233 276 311 332 340 340 347 354 328 336 14 54 93 222 316 307 313 300 233 267 253 313 310 286 306 297 344 336 335 309 311 294 288 239 259 59 42 27 147 168 210
213 208 206 206 209 218 234 269 312 336 346 350 330 296 337 356 71 335 313 298 268 312 321 325 295 40 175 302 321 268 298 287 327 340 341 332 309 320 337 56 25 36 325 7 79 83 240
212 207 204 205 208 215 232 266 312 334 345 352 351 5 14 53 86 150 341 283 310 274 263 277 294 315 359 282 219 293 310 315 321 346 343 345 328 355 332 307 288 298 348 14 84 5 319
209 208 204 207 207 213 228 256 303 327 353 358 26 56 326 305 332 357 62 277 291 305 248 303 312 245 291 310 320 217 302 322 341 1 351 7 292 338 299 313 311 323 356 36 52 9 44
208 206 204 205 208 213 222 248 284 330 353 351 353 136 213 278 300 318 270 261 271 313 297 313 248 303 295 263 229 307 319 339 315 335 342 342 309 327 293 335 343 6 21 14 34 48 71
208 205 206 206 209 212 219 235 269 332 347 342 346 274 279 347 10 67 252 297 324 347 310 307 354 317 293 273 296 281 277 283 287 311 331 325 337 333 302 321 306 24 356 355 21 42 7
208 206 205 205 209 211 216 227 252 313 321 315 297 256 205 271 174 206 255 286 291 310 275 302 312 270 305 311 303 283 255 260 270 279 250 305 322 294 291 323 37 299 353 5 62 45 29
204 205 204 205 207 210 212 228 244 280 296 302 283 245 243 274 232 283 251 261 318 316 265 265 297 292 307 317 346 352 345 39 323 72 124 234 301 314 345 316 295 5 17 4 0 35 22
202 203 203 205 205 207 211 227 243 269 290 288 264 249 256 310 256 268 305 267 224 302 322 276 318 326 334 333 44 67 290 252 323 354 71 232 258 327 347 357 358 10 325 321 297 50 7
200 201 203 203 203 206 211 226 241 265 282 272 259 248 250 258 274 231 274 240 224 245 252 299 329 337 359 20 38 19 286 202 2 34 342 353 10 39 318 332 313 353 319 317 43 314 330
198 200 199 201 202 205 213 226 239 265 276 255 257 249 242 253 284 270 228 262 261 224 207 324 333 360 9 39 81 287 352 283 350 239 312 189 9 326 319 356 353 356 357 52 319 319 331
196 198 197 198 201 205 214 226 239 264 255 232 243 258 258 245 269 271 276 221 229 229 287 326 333 13 358 44 3 23 337 340 345 335 346 1 45 302 10 330 334 357 332 345 341 321 14
Wind_Speed_850mb
8 9 12 14 18 21 24 26 30 33 31 23 16 12 13 15 18 20 22 23 25 27 26 25 27 30 36 24 42 25 19 26 27 21 18 16 19 17 11 17 25 39 36 30 43 48 49
6 8 11 13 17 20 23 27 30 28 23 17 13 12 15 16 17 20 21 21 21 24 25 23 24 28 29 23 28 20 33 37 24 21 14 16 10 14 28 23 27 30 41 40 50 49 47
6 8 10 12 16 18 22 25 23 20 20 20 18 20 20 18 20 21 20 21 23 24 22 23 22 27 23 52 29 35 26 24 24 25 28 24 26 22 14 13 28 41 35 33 35 40 19
6 6 7 9 13 17 19 20 18 20 22 22 22 21 19 19 20 20 21 22 22 22 23 23 25 26 24 45 20 17 19 26 41 43 41 27 21 26 21 24 22 15 20 37 22 23 20
6 4 6 8 13 15 17 16 17 20 21 21 20 20 20 18 19 20 22 23 25 27 28 28 27 21 27 12 20 36 41 48 46 36 37 34 30 20 14 10 15 16 28 36 31 34 21
4 3 4 7 9 12 15 16 17 17 17 19 19 20 19 20 22 25 28 29 23 25 20 17 17 12 17 21 52 47 42 35 31 25 16 14 16 8 6 14 28 27 19 32 31 14 41
5 3 1 4 7 10 12 14 13 15 16 18 19 21 21 21 25 30 30 17 17 6 23 26 41 38 65 42 52 44 44 26 15 8 10 16 8 23 40 37 37 34 39 30 23 14 17
7 6 1 2 4 7 10 10 12 12 14 17 19 20 21 22 25 25 28 17 13 17 28 50 35 41 43 41 29 56 31 9 8 12 7 6 28 41 28 24 34 39 39 32 33 22 14
11 6 4 4 3 5 7 9 9 10 14 17 18 20 21 25 20 25 26 26 24 21 12 24 12 21 18 25 23 57 15 15 14 17 18 29 43 20 33 29 34 39 39 31 38 13 16
12 9 7 4 3 4 6 7 8 10 14 16 18 19 22 26 15 26 17 30 28 21 8 12 9 5 15 48 15 41 46 23 10 14 11 22 29 41 33 35 31 39 38 37 29 17 10
16 14 9 6 5 4 4 7 8 10 14 16 18 22 24 24 24 19 27 32 23 9 8 9 13 14 42 12 37 8 20 20 31 28 10 15 21 18 38 54 29 31 31 35 47 21 7
20 16 12 10 6 5 4 6 6 10 13 16 19 22 24 23 21 21 30 31 11 11 11 14 12 16 22 19 8 20 23 19 30 20 18 41 32 21 35 39 40 10 9 34 8 11 11
23 18 14 12 9 7 3 7 8 11 13 18 22 25 26 24 24 26 28 21 9 8 11 15 10 12 23 10 14 8 15 18 11 17 14 37 17 8 14 11 29 31 17 7 13 9 9
25 21 17 14 13 8 6 8 11 14 17 20 26 27 28 24 27 26 26 10 7 7 11 10 12 21 7 17 9 14 12 11 5 21 24 14 13 11 17 13 21 45 19 9 14 12 7
28 24 21 17 15 10 9 9 11 16 21 25 28 33 27 22 25 25 12 7 13 11 7 13 21 10 12 11 4 14 9 7 8 19 16 10 11 5 13 5 7 24 15 8 7 9 6
31 28 25 21 18 13 12 9 11 17 24 30 33 35 15 12 26 19 8 10 6 7 8 6 3 4 8 12 16 15 10 6 21 24 29 10 16 1 4 5 8 12 16 5 4 8 5
36 32 29 25 20 17 13 9 13 18 25 30 29 13 7 23 25 4 4 10 10 12 8 4 6 8 9 7 9 9 13 19 21 33 30 19 9 23 9 4 2 7 5 5 7 2 4
39 35 33 28 22 20 14 10 14 19 24 24 16 6 14 19 9 7 2 5 10 9 7 7 6 7 7 6 6 6 10 15 44 41 33 11 11 14 14 14 14 4 7 2 5 4 2
43 39 36 30 25 22 15 10 14 18 21 25 19 6 9 18 5 7 10 7 5 7 8 9 8 1 2 4 8 7 10 23 32 26 33 18 10 17 19 8 16 12 9 4 8 6 5
45 41 39 34 30 24 16 11 12 17 19 21 9 6 7 12 8 5 4 7 8 9 11 9 15 10 5 5 4 10 18 14 52 23 55 26 8 16 15 13 9 11 11 3 10 3 7
49 42 40 36 33 26 18 12 11 14 15 14 8 3 2 6 5 3 2 3 5 7 7 7 8 2 6 8 8 4 12 26 25 27 36 17 8 20 24 13 11 9 18 27 12 8 9
52 46 44 42 37 29 20 13 11 9 11 9 5 2 1 7 8 7 2 6 5 8 5 9 5 14 13 6 9 17 17 18 9 21 29 21 10 17 9 17 14 9 35 24 22 10 10
56 50 48 44 40 31 22 14 12 7 9 4 3 4 3 1 3 6 4 6 8 16 9 6 13 14 10 11 20 27 29 32 25 17 16 15 17 14 11 25 20 8 18 14 6 24 10
59 55 51 48 43 34 25 18 12 5 8 8 7 6 2 7 3 7 3 6 10 9 10 22 29 2 13 38 50 34 15 19 18 17 10 14 18 6 10 16 13 10 12 5 21 26 25
65 59 54 51 45 37 28 22 13 7 10 9 10 7 4 4 10 11 8 6 14 15 7 13 12 13 30 25 10 13 9 8 8 8 2 6 8 9 6 7 8 10 19 16 14 14 29
67 62 57 53 46 39 30 24 14 10 12 11 12 12 8 2 9 7 2 2 2 4 9 7 14 20 14 6 8 6 4 6 10 8 3 3 6 3 7 6 6 6 29 46 15 5 32
69 63 58 54 48 40 33 25 16 14 14 14 13 13 10 7 7 5 2 3 2 2 4 9 14 10 13 6 6 2 6 7 6 4 9 5 5 3 7 4 7 15 49 33 9 11 42
70 66 59 55 49 41 34 25 18 16 18 18 14 15 13 7 13 8 8 5 4 3 2 10 7 7 8 8 5 5 3 5 5 5 3 2 4 4 3 6 10 51 19 13 14 28 29
71 68 61 57 50 42 34 25 19 16 16 18 17 15 14 14 8 9 12 7 8 7 3 7 5 7 7 4 2 3 6 7 4 6 5 6 2 4 6 4 11 27 12 30 13 12 18
Wind_Direction_850mb
341 344 344 346 350 354 353 353 353 353 348 338 326 330 332 318 308 304 308 307 304 305 304 303 307 306 313 304 286 315 300 302 306 297 285 266 243 248 243 285 277 262 275 265 248 248 245
327 333 340 352 356 0 3 6 2 360 2 11 14 355 352 338 320 324 322 316 308 303 300 298 302 303 304 288 316 302 297 300 317 312 289 245 252 287 263 263 272 304 301 280 256 250 238
303 327 346 358 5 6 14 10 358 1 16 20 21 19 7 348 342 336 326 313 306 302 300 300 297 299 279 272 300 298 293 301 302 306 300 271 271 271 312 302 276 283 278 285 258 245 240
295 329 343 1 10 11 16 10 359 16 21 22 24 16 5 353 343 333 322 316 312 304 298 297 295 292 265 308 306 308 287 281 296 291 286 281 283 270 256 282 299 293 263 248 252 219 229
294 312 336 8 13 12 11 10 15 22 23 25 20 15 7 352 346 340 334 328 317 303 296 291 281 280 270 298 298 314 304 302 302 285 269 268 268 251 223 253 282 233 253 234 255 214 204
247 282 339 11 8 13 8 17 23 24 24 26 17 12 5 358 355 349 336 324 310 299 296 298 269 291 260 302 310 313 322 315 297 291 280 226 211 206 198 205 244 240 243 249 226 219 211
227 248 283 3 354 19 12 18 19 23 24 23 19 10 1 4 358 348 348 347 349 306 305 276 277 269 285 301 303 311 327 312 269 219 190 201 177 220 231 223 235 257 264 251 226 236 250
217 236 228 292 346 15 13 6 18 19 24 19 12 9 3 358 349 350 345 25 11 316 302 308 299 274 288 301 293 309 315 271 211 233 190 259 235 237 244 231 236 243 260 264 253 221 238
226 227 221 253 334 6 356 0 7 12 22 16 9 5 353 349 337 341 349 4 352 333 288 306 310 292 322 305 281 298 275 276 219 248 233 237 247 240 226 222 234 247 244 255 251 177 215
216 221 221 248 291 339 337 358 352 9 17 10 2 352 342 343 345 337 335 339 332 327 36 288 334 343 320 326 272 309 295 256 232 254 236 250 265 232 236 227 213 245 224 244 274 175 215
217 216 215 237 265 305 327 349 346 5 9 6 357 344 340 345 335 337 333 330 325 327 358 276 297 319 324 302 294 334 317 268 257 245 193 246 234 223 218 219 183 244 209 245 232 214 202
219 214 216 221 222 248 325 324 332 354 357 355 348 338 334 341 344 333 330 328 327 38 265 324 315 326 341 310 275 291 313 302 292 277 225 249 234 247 218 224 208 165 216 244 125 202 205
217 211 216 222 220 228 285 296 317 337 343 339 337 333 333 334 331 331 334 329 23 124 342 301 316 336 326 297 308 320 314 318 320 318 322 308 217 185 198 241 209 189 196 166 203 208 195
218 213 213 221 223 222 259 286 312 331 332 334 330 329 326 321 324 328 338 45 90 237 244 312 301 321 338 355 301 325 302 319 9 353 311 337 323 183 168 236 174 183 215 176 171 168 145
215 214 210 213 223 227 244 278 311 331 330 331 325 322 321 312 321 329 352 44 211 207 265 308 316 27 328 345 325 347 301 289 330 3 337 292 252 286 256 218 196 171 204 252 190 55 67
216 211 209 206 216 227 242 272 311 329 333 332 330 324 326 332 324 323 74 255 230 233 315 32 32 85 323 322 343 337 314 294 333 346 340 284 290 102 300 9 301 227 155 159 36 143 230
214 210 208 207 213 224 238 272 311 329 335 333 335 336 350 330 324 338 149 238 292 288 268 161 211 288 250 315 310 297 298 300 4 333 329 306 272 309 327 39 197 130 169 48 92 140 99
213 209 209 206 210 220 233 276 311 332 340 340 347 354 328 336 14 54 93 222 316 307 313 300 233 267 253 313 310 286 306 297 344 336 335 309 311 294 288 239 259 59 42 27 147 168 210
213 208 206 206 209 218 234 269 312 336 346 350 330 296 337 356 71 335 313 298 268 312 321 325 295 40 175 302 321 268 298 287 327 340 341 332 309 320 337 56 25 36 325 7 79 83 240
212 207 204 205 208 215 232 266 312 334 345 352 351 5 14 53 86 150 341 283 310 274 263 277 294 315 359 282 219 293 310 315 321 346 343 345 328 355 332 307 288 298 348 14 84 5 319
209 208 204 207 207 213 228 256 303 327 353 358 26 56 326 305 332 357 62 277 291 305 248 303 312 245 291 310 320 217 302 322 341 1 351 7 292 338 299 313 311 323 356 36 52 9 44
208 206 204 205 208 213 222 248 284 330 353 351 353 136 213 278 300 318 270 261 271 313 297 313 248 303 295 263 229 307 319 339 315 335 342 342 309 327 293 335 343 6 21 14 34 48 71
208 205 206 206 209 212 219 235 269 332 347 342 346 274 279 347 10 67 252 297 324 347 310 307 354 317 293 273 296 281 277 283 287 311 331 325 337 333 302 321 306 24 356 355 21 42 7
208 206 205 205 209 211 216 227 252 313 321 315 297 256 205 271 174 206 255 286 291 310 275 302 312 270 305 311 303 283 255 260 270 279 250 305 322 294 291 323 37 299 353 5 62 45 29
204 205 204 205 207 210 212 228 244 280 296 302 283 245 243 274 232 283 251 261 318 316 265 265 297 292 307 317 346 352 345 39 323 72 124 234 301 314 345 316 295 5 17 4 0 35 22
202 203 203 205 205 207 211 227 243 269 290 288 264 249 256 310 256 268 305 267 224 302 322 276 318 326 334 333 44 67 290 252 323 354 71 232 258 327 347 357 358 10 325 321 297 50 7
200 201 203 203 203 206 211 226 241 265 282 272 259 248 250 258 274 231 274 240 224 245 252 299 329 337 359 20 38 19 286 202 2 34 342 353 10 39 318 332 313 353 319 317 43 314 330
198 200 199 201 202 205 213 226 239 265 276 255 257 249 242 253 284 270 228 262 261 224 207 324 333 360 9 39 81 287 352 283 350 239 312 189 9 326 319 356 353 356 357 52 319 319 331
196 198 197 198 201 205 214 226 239 264 255 232 243 258 258 245 269 271 276 221 229 229 287 326 333 13 358 44 3 23 337 340 345 335 346 1 45 302 10 330 334 357 332 345 341 321 14